SCP
0 0 0 0 0 0 0 0 0 0 0 0 0 0 0 0 0 0 0 0 0 0 0 0 0 0 0 0 0 0 0 0 0 0 0 0 0 0 0 0 0 0 0
0 0 0 0 0 0 0 0 0 0 0 0 0 0 0 0 0 0 0 0 0 0 0 0 0 0 0 0 0 0 0 0 0 0 0 0 0 0 0 0 0 0 0
0 0 0 0 0 0 0 0 0 0 0 0 0 0 0 0 0 0 0 0 0 0 0 0 0 0 0 0 0 0 0 0 0 0 0 0 0 0 0 0 0 0 0
0 0 0 0 0 0 0 0 0 0 0 0 0 0 0 0 0 0 0 0 0 0 0 0 0 0 0 0 0 0 0 0 0 0 0 0 0 0 0 0 0 0 0
0 0 0 0 0 0 0 0 0 0 0 0 0 0 0 0 0 0 0 0 0 0 0 0 0 0 0 0 0 0 0 0 0 0 0 0 0 0 0 0 0 0 0
0 0 0 0 0 0 0 0 0 0 0 0 0 0 0 0 0 0 0 0 0 0 0 0 0 0 0 0 0 0 0 0 0 0 0 0 0 0 0 0 0 0 0
0 0 0 0 0 0 0 0 0 0 0 0 0 0 0 0 0 0 0 0 0 0 0 0 0 0 0 0 0 0 0 0 0 0 0 0 0 0 0 0 0 0 0
0 0 0 0 0 0 0 0 0 0 0 0 0 0 0 0 0 0 0 0 0 0 0 0 0 0 0 0 0 0 0 0 0 0 0 0 0 0 0 0 0 0 0
0 0 0 0 0 0 0 0 0 0 0 0 0 0 0 0 0 0 0 0 0 0 0 0 0 0 0 0 0 0 0 0 0 0 0 0 0 0 0 0 0 0 0
0 0 0 0 0 0 0 0 0 0 0 0 0 0 0 0 0 0 0 0 0 0 0 0 0 0 0 0 0 0 0 0 0 0 0 0 0 0 0 0 0 0 0
0 0 0 0 0 0 0 0 0 0 0 0 0 0 0 0 0 0 0 0 0 0 0 0 0 0 0 0 0 0 0 0 0 0 0 0 0 0 0 0 0 0 0
0 0 0 0 0 0 0 0 0 0 0 0 0 0 0 0 0 0 0 0 0 0 0 0 0 0 0 0 0 0 0 0 0 0 0 0 0 0 0 0 0 0 0
0 0 0 0 0 0 0 0 0 0 0 0 0 0 0 0 0 0 0 0 0 0 0 0 0 0 0 0 0 0 0 0 0 0 0 0 0 0 0 0 0 0 0
0 0 0 0 0 0 0 0 0 0 0 0 0 0 0 0 0 0 0 0 0 0 0 0 0 0 0 0 0 0 0 0 0 0 0 0 0 0 0 0 0 0 0
0 0 0 0 0 0 0 0 0 0 0 0 0 0 0 0 0 0 0 0 0 0 0 0 0 0 0 0 0 0 0 0 0 0 0 0 0 0 0 0 0 0 0
0 0 0 0 0 0 0 0 0 0 0 0 0 0 0 0 0 0 0 0 0 0 0 0 0 0 0 0 0 0 0 0 0 0 0 0 0 0 0 0 0 0 0
0 0 0 0 0 0 0 0 0 0 0 0 0 0 0 0 0 0 0 0 0 0 0 0 0 0 0 0 0 0 0 0 0 0 0 0 0 0 0 0 0 0 0
0 0 0 0 0 0 0 0 0 0 0 0 0 0 0 0 0 0 0 0 0 0 0 0 0 0 0 0 0 0 0 0 0 0 0 0 0 0 0 0 0 0 0
0 0 0 0 0 0 0 0 0 0 0 0 0 0 0 0 0 0 0 0 0 0 0 0 0 0 0 0 0 0 0 0 0 0 0 0 0 0 0 0 0 0 0
0 0 0 0 0 0 0 0 0 0 0 0 0 0 0 0 0 0 0 0 0 0 0 0 0 0 0 0 0 0 0 0 0 0 0 0 0 0 0 0 0 0 0
0 0 0 0 0 0 0 0 0 0 0 0 0 0 0 0 0 0 0 0 0 0 0 0 0 0 0 0 0 0 0 0 0 0 0 0 0 0 0 0 0 0 0
0 0 0 0 0 0 0 0 0 0 0 0 0 0 0 0 0 0 0 0 0 0 0 0 0 0 0 0 0 0 0 0 0 0 0 0 0 0 0 0 0 0 0
0 0 0 0 0 0 0 0 0 0 0 0 0 0 0 0 0 0 0 0 0 0 0 1 1 1 1 0 1 1 0 0 0 0 0 0 0 0 0 0 0 0 0
0 0 0 0 0 0 0 0 0 0 0 0 0 0 0 0 0 0 0 0 0 0 1 1 1 1 1 1 1 1 1 1 0 0 0 0 0 0 0 0 0 0 0
0 0 0 0 0 0 0 0 0 0 0 0 0 0 0 0 0 0 0 0 0 1 1 1 1 1 1 1 1 1 1 1 1 0 0 0 0 0 0 0 0 0 0
0 0 0 0 1 1 0 0 0 0 0 0 0 0 0 0 0 0 0 0 0 1 1 1 1 1 1 1 1 1 1 1 1 1 0 0 0 0 0 0 0 0 0
Wind_Speed
4 5 7 6 7 7 8 8 8 8 9 10 11 12 13 14 15 16 16 16 16 16 16 17 16 15 15 15 14 14 14 14 14 14 14 13 13 12 12 12 10 11 13
5 6 8 7 7 8 8 8 8 9 10 11 12 13 14 14 15 16 16 16 16 16 16 16 16 15 15 14 14 13 14 14 14 14 14 13 12 11 10 9 6 10 12
5 7 8 8 8 8 8 8 9 9 10 12 12 13 15 15 15 16 16 16 16 16 16 16 15 15 14 14 13 14 14 14 14 12 10 9 12 11 10 10 10 12 11
6 7 8 9 8 8 9 9 9 10 11 12 13 14 15 15 15 16 16 16 16 16 16 15 15 15 14 13 14 14 14 13 12 10 7 8 10 12 10 10 10 10 10
6 7 10 8 8 8 9 9 10 10 11 12 13 14 14 14 14 15 16 16 15 15 15 15 15 15 14 13 13 13 13 12 10 7 7 7 8 12 10 10 10 9 9
7 8 10 8 8 8 9 10 10 9 11 12 12 13 14 14 14 14 15 14 14 14 14 14 14 14 13 13 13 12 11 10 8 7 7 7 8 11 10 10 9 9 9
7 8 10 9 8 8 9 9 9 10 10 11 12 12 13 13 13 13 13 13 13 13 13 14 14 13 13 12 11 11 10 6 4 7 6 6 9 10 9 9 8 8 8
7 8 9 10 8 8 9 9 9 9 9 10 11 11 11 12 12 11 11 12 12 12 12 13 13 13 12 11 10 9 7 3 5 6 6 7 10 8 8 8 8 7 7
6 7 7 7 8 9 8 8 8 9 9 9 10 10 11 11 11 11 10 11 12 12 11 11 11 11 11 10 9 8 6 2 2 4 5 6 10 8 7 7 7 7 7
5 5 6 6 5 5 8 9 8 8 8 9 8 9 9 10 10 10 10 11 11 11 11 11 11 10 9 9 8 7 6 5 4 5 4 7 9 8 7 7 7 7 6
5 4 4 5 4 4 5 7 7 8 7 7 7 8 6 6 7 8 10 11 10 9 10 9 9 9 8 9 8 7 6 3 4 3 4 9 7 7 6 6 6 6 7
5 4 3 4 4 4 4 4 3 4 5 4 4 5 3 4 4 5 11 9 8 9 9 9 8 8 6 6 8 8 3 4 3 3 5 9 6 5 5 5 5 6 6
5 4 4 4 3 2 3 3 2 2 3 4 5 4 3 3 4 3 4 6 6 8 6 9 8 5 4 3 2 3 2 2 2 2 6 8 6 5 4 4 5 5 5
4 4 4 4 3 2 2 2 2 2 2 3 4 4 3 2 3 3 2 3 3 3 3 3 3 4 3 3 3 2 3 2 2 2 5 7 5 4 4 4 4 4 5
4 4 4 4 3 2 2 1 2 2 2 3 2 3 3 3 3 3 2 2 2 3 3 3 3 4 4 3 2 3 2 2 2 2 4 7 5 4 4 4 4 3 3
4 5 5 4 4 3 2 1 1 2 2 2 2 3 3 2 2 2 3 2 2 2 2 3 4 4 3 3 3 3 2 2 3 3 3 6 6 5 3 3 3 3 3
5 5 5 4 4 3 2 1 2 2 2 2 2 2 2 2 3 3 2 3 3 3 4 3 4 3 3 4 3 3 2 2 2 2 2 2 4 6 5 3 3 2 3
5 5 4 3 4 3 2 1 1 1 1 1 2 2 2 2 3 3 3 3 3 3 3 3 3 3 3 3 2 2 2 2 2 2 2 2 1 2 5 5 3 2 2
5 5 5 4 4 3 3 2 1 1 1 0 1 2 2 2 3 3 2 3 4 3 3 3 3 3 3 3 3 2 2 2 2 2 2 2 1 1 2 6 5 2 2
6 5 5 5 4 4 3 3 2 1 2 1 2 2 2 2 3 2 3 4 4 3 3 3 3 2 2 2 2 3 2 2 2 2 2 3 2 2 2 2 3 4 4
6 6 5 5 5 4 3 3 2 2 2 2 2 3 3 2 3 2 2 4 3 3 3 4 4 4 3 3 3 3 2 2 2 2 1 2 2 2 2 1 2 1 3
7 7 6 6 6 5 4 2 2 1 1 1 1 2 3 3 2 3 3 3 3 3 4 4 4 3 3 3 2 2 2 3 2 2 2 2 2 2 2 3 2 2 3
8 8 6 6 6 5 5 4 3 3 2 2 3 2 2 2 2 2 3 2 3 3 4 5 5 5 3 3 2 2 2 1 2 2 2 2 1 1 2 2 2 2 3
8 8 8 7 7 6 6 5 4 3 2 2 1 2 2 3 3 3 3 3 3 2 3 4 4 3 4 3 2 2 2 1 1 2 3 2 2 2 2 2 1 2 2
8 8 8 8 7 7 6 6 5 4 2 2 2 2 2 2 3 3 3 3 3 3 3 3 3 4 3 3 2 2 2 2 3 2 2 2 2 2 2 2 1 1 1
8 8 8 8 8 7 7 6 6 4 3 2 2 2 2 2 3 3 3 3 4 3 3 3 4 5 3 3 3 3 3 3 3 3 2 2 1 1 1 1 1 1 1
Wind_Direction
61 69 73 60 56 60 67 75 80 92 103 109 116 123 124 124 125 124 126 124 122 122 121 124 122 120 117 119 120 122 123 124 126 125 124 125 125 126 128 132 143 124 121
78 84 88 71 61 64 72 76 81 91 99 105 112 120 123 124 124 123 124 125 122 121 119 118 118 118 116 116 116 120 124 126 125 125 128 127 124 122 125 127 112 112 128
86 89 94 77 69 68 74 78 81 92 98 102 107 112 120 122 122 123 123 123 122 120 118 117 117 117 116 114 115 119 122 123 124 129 144 135 123 122 121 119 112 120 127
94 92 84 80 74 72 75 79 84 95 97 101 105 112 117 119 119 122 122 121 120 121 120 120 120 119 117 115 115 117 119 122 127 149 148 123 124 123 126 122 121 124 128
98 96 90 87 79 75 76 79 86 97 100 104 106 109 113 117 118 118 120 120 122 123 123 123 120 119 118 115 116 118 120 125 141 162 114 116 117 123 127 124 125 128 129
99 97 96 90 80 75 77 80 84 97 103 107 110 109 111 115 117 120 122 123 124 125 126 125 122 120 119 117 117 120 124 135 162 122 114 121 116 124 129 131 134 133 132
96 95 97 91 83 79 80 83 87 96 103 110 113 114 117 119 120 122 123 125 126 128 128 129 126 125 124 122 121 121 125 143 137 112 115 113 108 124 134 136 137 135 135
97 97 100 104 92 87 84 86 93 102 105 111 114 115 118 120 123 126 125 128 130 131 130 131 130 128 126 124 124 125 131 170 131 110 112 112 111 129 137 138 139 139 142
96 95 98 106 111 111 97 88 92 104 109 113 115 120 122 121 122 125 126 127 131 133 133 134 135 131 129 127 127 129 133 149 136 122 121 111 123 138 145 148 149 151 156
95 90 97 100 98 105 111 105 101 107 112 117 119 124 127 131 133 132 136 129 129 132 134 136 138 136 134 132 132 133 148 193 152 128 120 114 130 144 152 155 156 163 166
113 102 99 100 102 98 99 110 120 124 126 134 134 137 151 149 140 144 125 124 130 133 134 136 139 138 140 141 140 149 181 180 130 114 103 108 132 148 160 165 168 175 177
124 116 104 92 89 97 96 106 118 124 126 136 130 140 145 128 127 131 120 133 137 137 139 140 140 153 176 158 153 176 179 149 132 124 110 119 137 151 157 165 174 175 173
126 121 114 103 92 87 102 104 101 106 116 133 135 141 141 137 139 141 140 148 154 161 159 150 163 170 158 134 144 160 133 128 117 110 112 125 137 151 158 164 166 166 165
131 130 124 118 111 84 72 96 119 117 123 127 139 158 147 141 144 140 141 141 157 152 147 148 142 144 135 140 148 138 131 129 111 103 107 119 131 146 150 155 159 165 171
143 137 124 118 112 106 96 75 93 96 106 122 135 143 159 154 148 145 141 150 151 139 147 151 152 139 133 132 135 124 115 103 105 113 112 113 121 129 140 149 157 165 168
157 147 137 136 125 120 123 124 100 119 127 120 129 140 160 147 149 156 154 146 139 141 135 148 145 137 130 118 116 115 127 125 121 138 133 131 133 136 138 141 152 163 173
160 153 149 148 137 138 147 150 143 138 124 114 121 132 151 156 157 158 146 151 144 143 146 146 139 142 142 137 133 137 139 134 130 133 142 148 145 143 143 148 156 170 184
163 158 161 161 147 150 148 139 124 108 118 128 125 126 141 149 162 166 158 149 145 152 153 147 147 144 139 140 135 136 136 138 143 151 155 159 156 147 145 145 151 162 187
167 163 166 164 161 155 146 146 138 116 114 132 132 124 132 153 167 171 151 139 161 161 162 162 133 148 143 140 141 144 149 138 149 159 146 150 151 170 161 143 153 156 186
166 165 166 167 166 165 162 160 162 154 158 158 139 125 136 155 158 165 154 154 164 153 150 139 137 141 138 144 139 119 140 156 170 158 177 164 170 178 176 160 178 172 176
167 171 176 176 170 180 178 182 178 167 173 155 148 134 144 154 158 168 156 146 164 151 157 158 153 151 156 156 149 144 155 161 156 159 186 186 171 175 166 182 242 243 178
175 180 181 183 180 188 172 176 179 172 171 149 141 136 155 160 175 171 166 165 160 156 163 168 174 176 170 183 197 187 179 168 167 164 170 186 194 187 187 198 210 240 271
182 184 184 184 182 188 179 176 170 171 187 166 164 162 173 178 180 174 167 170 175 188 175 184 193 199 190 194 226 254 235 172 146 152 181 188 196 227 226 203 210 220 244
187 183 184 184 185 184 187 188 188 184 178 165 168 149 177 184 185 183 180 180 200 199 177 201 193 207 214 204 192 232 285 319 237 167 180 179 197 219 242 250 223 207 230
187 185 183 185 187 187 191 188 198 198 186 172 164 154 207 185 193 197 191 189 198 202 196 208 195 217 220 227 219 208 196 206 236 231 205 196 198 200 205 217 232 232 197
187 187 185 182 188 189 193 195 203 198 192 184 194 192 205 190 193 195 203 196 206 206 200 208 211 213 232 244 248 237 222 221 221 218 221 223 215 184 199 216 217 216 231